Regional Weather Roundup
Issued by NWS

Home | Current Version | Previous Version | Graphics & Text | Print | Product List | Glossary On
Versions: 1 2 3 4 5 6 7 8 9 10 11 12 13 14 15 16 17 18 19 20 21 22 23 24 25 26 27 28 29 30 31 32 33 34 35 36 37 38 39 40 41 42 43 44 45 46 47 48 49 50
847
ASUS45 KCYS 231110
RWRWY

WYOMING REGIONAL WEATHER ROUNDUP
NATIONAL WEATHER SERVICE CHEYENNE WY
500 AM MDT TUE MAY 23 2017

NOTE:  "FAIR" INDICATES FEW OR NO CLOUDS BELOW 12,000 FEET
WITH NO SIGNIFICANT WEATHER AND/OR OBSTRUCTIONS TO VISIBILITY.

WYZ001-231200-
YELLOWSTONE NATIONAL PARK

CITY           SKY/WX    TMP DP  RH WIND       PRES   REMARKS
LK YELLOWSTONE   N/A     26  26 100 CALM      30.36F
W YELLOWSTONE  NOT AVBL

$$
WYZ002>013-054>058-071-098>099-231200-
NORTHERN WYOMING

CITY           SKY/WX    TMP DP  RH WIND       PRES   REMARKS
JACKSON        FAIR      32  30  93 N6        30.33S WCI  26
CODY           FAIR      43  33  68 SW6       30.25F
GREYBULL       FAIR      38  35  89 SE3       30.22F
WORLAND        FAIR      36  36 100 MISG      30.23R
SHERIDAN       FAIR      39  35  86 CALM      30.21F
BUFFALO        FAIR      40  32  73 W8        30.23S WCI  34
GILLETTE       FAIR      40  37  89 W13       30.19S WCI  32
HULETT         FAIR      36  34  93 S5        30.19S WCI  32
NEWCASTLE      FAIR      36  34  93 N7        30.19S WCI  30

$$
WYZ014>020-022>026-101>103-231200-
CENTRAL WYOMING

CITY           SKY/WX    TMP DP  RH WIND       PRES   REMARKS
BIG PINEY      FAIR      30  29  96 NE6       30.34S WCI  24
PINEDALE       FAIR      28  28 100 W3        30.35F
DUBOIS         FAIR      30  27  86 NW9       30.32F WCI  22
LANDER         FAIR      43  31  62 W3        30.26S
RIVERTON       FAIR      39  35  86 W7        30.27S WCI  34
CASPER         FAIR      37  36  96 W9        30.24F WCI  30
DOUGLAS        CLOUDY    41  37  86 NW13      30.23S

$$
WYZ021-027>030-104>119-231200-
SOUTHERN WYOMING

CITY           SKY/WX    TMP DP  RH WIND       PRES   REMARKS
EVANSTON       CLOUDY    43  36  76 E8        30.31F
KEMMERER         N/A     36  32  87 N3        30.35S
FORT BRIDGER   CLOUDY    42  34  74 MISG      30.35F
ROCK SPRINGS   NOT AVBL
DIXON            N/A     31  29  92 SE3       30.35F
RAWLINS        MOCLDY    30  28  92 CALM      30.31S
LARAMIE        FAIR      30  26  85 NW6       30.25F WCI  24
CHEYENNE       CLOUDY    40  32  73 NW9       30.21F WCI  34
TORRINGTON     FAIR      40  36  86 N12       30.16F WCI  33
PINE BLUFFS    FAIR      37  34  87 MISG      30.19F

$$




USA.gov is the U.S. government's official web portal to all federal, state and local government web resources and services.